Regional Weather Roundup
Issued by NWS

Home | Current Version | Previous Version | Text Only | Print | Product List | Glossary Off
Versions: 1 2 3 4 5 6 7 8 9 10 11 12 13 14 15 16 17 18 19 20 21 22 23 24 25 26 27 28 29 30 31 32 33 34 35 36 37 38 39 40 41 42 43 44 45 46 47 48 49 50

000
ASUS45 KTFX 221410
RWRMT
MONTANA REGIONAL WEATHER ROUNDUP
NATIONAL WEATHER SERVICE GREAT FALLS MT
700 AM MST SUN JAN 22 2017

NOTE: "FAIR" INDICATES FEW OR NO CLOUDS BELOW 12000 FEET WITH NO
SIGNIFICANT WEATHER AND/OR OBSTRUCTIONS TO VISIBILITY.

MTZ001>007-043-221500-
WEST OF THE DIVIDE

CITY           SKY/WX    TMP DP  RH WIND       PRES   REMARKS
KALISPELL      CLOUDY    21  19  92 CALM      29.80S FOG
MISSOULA       CLOUDY    21  20  96 CALM      29.83S FOG
BUTTE          CLOUDY     6   2  83 CALM      29.80R
MULLAN PASS    CLOUDY    24  21  88 VRB7      29.66F FOG     WCI  16
ANACONDA         N/A     21  14  73 S9        29.80R WCI  11
DEER LODGE       N/A     18  16  93 CALM      29.82R
EUREKA           N/A     27  25  93 CALM      29.82S
HAMILTON         N/A     23  21  93 CALM      29.79F
RONAN            N/A     25  23  91 CALM      29.85S
$$

MTZ008-052>055-221500-
SOUTHWEST MONTANA

CITY           SKY/WX    TMP DP  RH WIND       PRES   REMARKS
BOZEMAN        CLOUDY    14  11  87 CALM      29.83R
DILLON         CLOUDY   N/A N/A N/A S9        29.82R
W YELLOWSTONE  CLOUDY    23  19  86 SW9       29.86R WCI  13
ENNIS          CLEAR     23  18  80 S14       29.87R WCI  11
$$

MTZ009-010-012-014-046-048-049-054-221500-
EAST SLOPES AND CENTRAL MONTANA

CITY           SKY/WX    TMP DP  RH WIND       PRES   REMARKS
CUT BANK       CLOUDY    22  22 100 NW3       29.79R FOG
GREAT FALLS    CLOUDY    24  18  77 NE5       29.79S
MALMSTROM AFB  CLOUDY    23  22  94 CALM      29.81S
HELENA         CLOUDY    11   7  84 CALM      29.84R
AUGUSTA        MOCLDY    24  19  84 E6        29.77R WCI  16
BOWMANS CRNR     N/A     21  16  81 SW12      29.76R WCI   9
CHOTEAU          N/A     19  18  93 CALM      29.80S
POWER          MOCLDY    19  17  90 CALM      29.78S
RAYNESFORD     MOCLDY    24  21  87 CALM      29.78F
ULM              N/A     27  21  77 MISG      29.79S
$$

MTZ011-013-016-021-045-047-050-051-221500-
NORTH CENTRAL MONTANA

CITY           SKY/WX    TMP DP  RH WIND       PRES   REMARKS
HAVRE          CLOUDY    26  24  92 SW10      29.83R WCI  16
LEWISTOWN      CLOUDY    18  13  80 SW8       29.78F WCI   8
CHINOOK          N/A     28  27  93 W10       29.83R WCI  19
DENTON         FOG       20  20  96 NW5G20    29.78R VSB 1
FORT BENTON      N/A     27  23  86 MISG      29.85R
GEYSER         CLOUDY    26  21  79 SW13      29.77S WCI  15
GRASS RANGE    MOCLDY    26  20  79 W8        29.75S WCI  17
JUDITH GAP     MOCLDY    26  16  65 W13       29.76F WCI  15
ROY              N/A     23  20  89 MISG      29.77R
STANFORD       MOCLDY    26  20  75 NW9       29.76F WCI  17
WINIFRED       LGT SNOW  23  22  98 W14       29.79R VSB 7/8 WCI  10
$$

MTZ017>020-022>027-061-062-221500-
NORTHEAST MONTANA

CITY           SKY/WX    TMP DP  RH WIND       PRES   REMARKS
GLASGOW        CLOUDY    27  26  96 W9        29.79R FOG     WCI  18
JORDAN           N/A     25  22  88 NW9       29.81R WCI  15
SIDNEY         CLOUDY    28  26  92 NW14      29.79R WCI  17
WOLF POINT     CLOUDY    30  25  81 W9        29.80R WCI  22
PLENTYWOOD       N/A     28  28 100 W13       29.74R WCI  18
POPLAR           N/A     28  25  86 W7        29.80R WCI  21
SCOBEY           N/A     28  22  78 NW10      29.74  WCI  19
$$

MTZ028>42-056>058-221500-
SOUTHCENTRAL AND SOUTHEAST MONTANA

CITY           SKY/WX    TMP DP  RH WIND       PRES   REMARKS
BAKER          FOG       22  20  92 W14       29.79S VSB 3/4 WCI   9
BILLINGS       CLOUDY    27  18  69 SW17      29.81S WCI  14
LIVINGSTON     CLEAR     32  16  51 W22G28    29.79S WCI  19
MILES CITY     CLOUDY    12   8  84 SE5       29.82R FOG
BIG TIMBER     CLEAR     28  18  64 W13G20    29.81R WCI  18
EKALAKA          N/A     22  17  81 SW6       29.78  WCI  15
FORSYTH          N/A     18  16  93 W3        29.83R
HARLOWTON        N/A     24  18  76 W10       29.78S WCI  14
LAUREL           N/A     21   9  60 W5        29.82R
$$

REGIONAL REPORTS...DAKOTAS

CITY           SKY/WX    TMP DP  RH WIND       PRES   REMARKS
WILLISTON      CLOUDY    29  26  89 W12       29.76R WCI  19
MINOT          CLOUDY    31  26  82 W16       29.69R WCI  20
DICKINSON      CLOUDY    23  21  92 W13       29.73R FOG     WCI  11
BEACH          CLOUDY    25  25 100 W10       29.80R FOG     WCI  15
CROSBY         CLOUDY    30  30 100 W12       29.74R WCI  21
TIOGA          CLOUDY    28  28 100 W12       29.73R WCI  18
WATFORD CITY   CLOUDY    27  27 100 W12       29.76R WCI  16
BISMARCK       CLOUDY    28  26  92 W9        29.75R WCI  19
GRAND FORKS    CLOUDY    34  31  88 W6        29.68R FOG     WCI  29
FARGO          CLOUDY    35  33  92 NW6       29.70R WCI  30
BUFFALO SD       N/A     17  14  88 NW12      29.71R WCI   4
RAPID CITY     CLEAR     24  17  74 NW9       29.79R WCI  14
$$

REGIONAL REPORTS...WYOMING/IDAHO/WASHINGTON

CITY           SKY/WX    TMP DP  RH WIND       PRES   REMARKS
GILLETTE       CLOUDY    22  18  85 W10       29.81R WCI  11
SHERIDAN       CLOUDY    22  15  75 SW12      29.82R WCI  10
BUFFALO WY     CLOUDY    29  16  58 CALM      29.82R
CODY           CLEAR     33  13  43 W10       29.82R WCI  25
YELLOWSTONE LA   N/A     13  12  96 CALM      29.86R
IDAHO FALLS    CLOUDY    20  19  96 N6        29.90F WCI  12
SALMON         CLOUDY    10   9  92 E3        29.86S
BOISE          MOCLDY    38  26  62 SE15      29.72F WCI  29
SPOKANE        MOCLDY    33  31  92 E9        29.67F WCI  25
$$

REGIONAL REPORTS...ALBERTA

CITY           SKY/WX    TMP DP  RH WIND       PRES   REMARKS
EDMONTON         N/A     16   9  73 NE3       29.92S VSB 3/8
LETHBRIDGE     CLOUDY    25  25 100 W3        29.82S FOG
MEDICINE HAT   LGT SNOW  27  27 100 N5        29.83S FOG
WATERTON GATE    N/A     21  19  93 E2          N/A
MILK RIVER       N/A     25  25 100 NW8         N/A  WCI  16
$$

REGIONAL REPORTS...SASKATCHEWAN

CITY           SKY/WX    TMP DP  RH WIND       PRES   REMARKS
SWIFT CURRENT  CLOUDY    23  23 100 NW17      29.74R WCI   9
REGINA         CLOUDY    27  25  93 NW12      29.70R WCI  16
SASKATOON      FLURRIES  25  21  86 N18       29.77R WCI  11
CYPRESS HILLS    N/A     23  19  86 NW5         N/A
VAL MARIE        N/A     27  23  86 NW10        N/A  WCI  17
ASSINIBOIA       N/A     16  14  93 N5          N/A
$$



USA.gov is the U.S. government's official web portal to all federal, state and local government web resources and services.